User: anonymous   Login
Location: Unspecified
(0.0000°N, 0.0000°E)
Time: 03:43:51
(UTC+01:00)
Language:

Iridium 4 Rocket - Orbit

View from above orbital plane
View from above orbital plane
View from above satellite
View from above satellite

Ground track
Ground track

The orbit data is extracted from the following two-line orbital elements,

1 24797U 97020F   17015.83310231  .00000105  00000-0  16184-4 0  9992
2 24797  86.8933  49.1737 0227791 105.1675  15.9453 14.43940823 35960
Epoch (UTC): 15 January 2017 19:59:40
Eccentricity: 0.0227791
inclination: 86.8933°
perigee height: 583 km
apogee height: 908 km
right ascension of ascending node: 49.1737°
argument of perigee: 105.1675°
revolutions per day: 14.43940823
mean anomaly at epoch: 15.9453°
orbit number at epoch: 3596

The dashed part of the orbit path shows where the satellite is in the earth's shadow,  

DLR